Indianapolis, IN

11:27 PM EST on November 16, 2019 (GMT -0500)
Indianapolis International

Weather History for KIND - September, 2019

Change the Weather History Date:

Friday, September 13, 2019

  Actual Average Record
Temperature  
Mean Temperature 78 °F 68 °F  
Max Temperature 91 °F 79 °F 99 °F (1939)
Min Temperature 64 °F 58 °F 39 °F (1975)
Degree Days  
Heating Degree Days 0 1  
Month to date heating degree days 0 9  
Since 1 July heating degree days 0 13  
Cooling Degree Days 13 5  
Month to date cooling degree days 113 80  
Year to date cooling degree days 1152 1001  
Growing Degree Days 31 (Base 50)    
Moisture  
Dew Point 66 °F    
Average Humidity 66    
Maximum Humidity 87    
Minimum Humidity 44    
Precipitation  
Precipitation 0.00 in 0.11 in 1.80 in (1892)
Month to date precipitation 0.01 1.34  
Year to date precipitation 36.56 30.67  
Snow  
Snow 0.00 in 0.00 in 0.00 in ()
Month to date snowfall 0.0 0.0  
Since 1 July snowfall 0.0 0.0  
Since 1 September snowfall 0.0 0.0  
Snow Depth 0.00 in    
Sea Level Pressure  
Sea Level Pressure 30.07 in    
Wind  
Wind Speed 13 mph (SW)    
Max Wind Speed 25 mph    
Max Gust Speed 32 mph    
Visibility 10 miles    
Events      
T = Trace of Precipitation, MM = Missing Value Source: NWS Daily Summary

Daily Weather History Graph

Daily Weather History Graph

Search for Another Location

Airport or City:

Astronomy

Sep. 13, 2019 Rise Set
Actual Time 7:24 AM EDT 7:57 PM EDT
Civil Twilight 6:57 AM EDT 8:24 PM EDT
Nautical Twilight 6:25 AM EDT 8:56 PM EDT
Astronomical Twilight 5:52 AM EDT 9:29 PM EDT
Moon 8:10 PM EDT (9/13) 6:40 AM EDT (9/13)
Length of Visible Light 13h 27m
Length of Day
12h 33m
Full, 100% of the Moon is Illuminated
Sep 13
Full
Sep 14
Full
Sep 21
Last Quarter
Sep 28
New
Oct 5
First Quarter

Hourly Weather History & Observations

Time (EDT) Temp. Heat Index Dew Point Humidity Pressure Visibility Wind Dir Wind Speed Gust Speed Precip Events Conditions
12:54 AM 79.0 °F - 70.0 °F 74% 30.07 in 10.0 mi SSE 6.9 mph - N/A   Partly Cloudy
1:54 AM 75.9 °F - 70.0 °F 82% 30.07 in 10.0 mi South 4.6 mph - N/A   Clear
2:54 AM 73.9 °F - 69.1 °F 85% 30.07 in 10.0 mi SW 3.5 mph - N/A   Clear
3:54 AM 75.0 °F - 69.1 °F 82% 30.06 in 10.0 mi South 6.9 mph - N/A   Partly Cloudy
4:54 AM 75.9 °F - 69.1 °F 79% 30.05 in 10.0 mi SSW 12.7 mph - N/A   Clear
5:54 AM 75.0 °F - 68.0 °F 79% 30.05 in 10.0 mi South 9.2 mph - N/A   Clear
6:54 AM 73.0 °F - 68.0 °F 84% 30.05 in 10.0 mi SSW 9.2 mph - N/A   Clear
7:54 AM 73.9 °F - 68.0 °F 82% 30.07 in 10.0 mi South 8.1 mph - N/A   Scattered Clouds
8:54 AM 77.0 °F - 69.1 °F 76% 30.07 in 10.0 mi South 8.1 mph - N/A   Scattered Clouds
9:54 AM 80.1 °F 82.9 °F 69.1 °F 69% 30.08 in 10.0 mi SW 12.7 mph - N/A   Scattered Clouds
10:54 AM 84.0 °F 88.4 °F 70.0 °F 63% 30.08 in 10.0 mi SW 11.5 mph - N/A   Scattered Clouds
11:54 AM 86.0 °F 90.7 °F 70.0 °F 59% 30.08 in 10.0 mi SW 17.3 mph - N/A   Scattered Clouds
12:54 PM 89.1 °F 94.1 °F 70.0 °F 53% 30.06 in 10.0 mi SW 17.3 mph 27.6 mph N/A   Scattered Clouds
1:54 PM 90.0 °F 95.4 °F 70.0 °F 52% 30.07 in 10.0 mi SW 21.9 mph 29.9 mph N/A   Scattered Clouds
2:54 PM 89.1 °F 94.1 °F 70.0 °F 53% 30.06 in 10.0 mi SW 17.3 mph - N/A   Scattered Clouds
3:54 PM 89.1 °F 94.1 °F 70.0 °F 53% 30.04 in 10.0 mi WSW 21.9 mph 29.9 mph N/A   Mostly Cloudy
4:54 PM 88.0 °F 92.1 °F 69.1 °F 53% 30.04 in 10.0 mi WSW 20.7 mph 28.8 mph N/A   Mostly Cloudy
5:54 PM 87.1 °F 89.2 °F 66.0 °F 49% 30.04 in 10.0 mi WSW 21.9 mph - N/A   Scattered Clouds
6:54 PM 84.0 °F 84.0 °F 60.1 °F 44% 30.06 in 10.0 mi West 18.4 mph 25.3 mph N/A   Partly Cloudy
7:54 PM 79.0 °F - 57.0 °F 47% 30.07 in 10.0 mi West 12.7 mph - N/A   Partly Cloudy
8:54 PM 77.0 °F - 60.1 °F 56% 30.10 in 10.0 mi West 15.0 mph - N/A   Partly Cloudy
9:54 PM 73.9 °F - 57.9 °F 57% 30.12 in 10.0 mi West 10.4 mph - N/A   Partly Cloudy
10:54 PM 71.1 °F - 59.0 °F 66% 30.14 in 10.0 mi WNW 11.5 mph - N/A   Partly Cloudy
11:54 PM 66.0 °F - 59.0 °F 78% 30.15 in 10.0 mi NW 8.1 mph - N/A   Scattered Clouds